sat.trackr.live / text

‹ back to catalog

BANDWAGON-2 OBJECT L

NORAD 62387 · 2024-247L

PAYLOAD ACTIVE UNKNOWN

§ Identity

Operator
Country
TBD
Launch date
2024-12-21
Launch site
AFWTR
Launch vehicle
Mass (kg)
RCS (m²)

External: N2YO · Heavens-Above · Gunter

§ Orbital elements

Epoch: 2026-09-20T17:14:15.243072Z

Period
92.12 min
Inclination
44.9874°
Eccentricity
0.0009039
Mean motion
15.63199175 rev/d
Perigee alt
372.3 km
Apogee alt
384.5 km
Semi-major
6,756.6 km
B*
7.0513e-4
RAAN
62.6326°
Arg perigee
258.6281°
Mean anomaly
101.3600°
Rev number
9,838

§ Raw data

BANDWAGON-2 OBJECT L1 62387U 24247L   26263.71823198  .00066412  00000+0  70513-3 0  99902 62387  44.9874  62.6326 0009039 258.6281 101.3600 15.63199175 98388

JSON: /api/v1/satellites/62387 · /tle

For live sub-satellite position, see the globe view (requires WebGL).

§ Visibility from observer

Set your observer location to see the next 7 days of passes ≥ 10°. The values pass through the URL so the page stays shareable.

No JS? Fill the form by hand. The geolocation button needs JavaScript.